Canyon City, OR

5:30 AM PST on February 07, 2016 (GMT -0800)
Grant County Regional

Weather History for KGCD - May, 2014

Change the Weather History Date:

Tuesday, May 6, 2014

  Actual Average (KBNO) Record (KBNO)
Temperature  
Mean Temperature 46 °F 49 °F  
Max Temperature 53 °F 63 °F 89 °F (1992)
Min Temperature 39 °F 34 °F 20 °F (2001)
Degree Days  
Heating Degree Days 19 16  
Month to date heating degree days 103  
Since 1 July heating degree days 7143  
Cooling Degree Days 0 0  
Month to date cooling degree days 0  
Year to date cooling degree days 0  
Moisture  
Dew Point 35 °F    
Average Humidity 67    
Maximum Humidity 93    
Minimum Humidity 44    
Precipitation  
Precipitation 0.00 in 0.04 in 0.74 in (2005)
Month to date precipitation 0.21  
Year to date precipitation 4.44  
Sea Level Pressure  
Sea Level Pressure 29.93 in    
Wind  
Wind Speed 5 mph (WNW)    
Max Wind Speed 15 mph    
Max Gust Speed 23 mph    
Visibility 10 miles    
Events Rain    
T = Trace of Precipitation, MM = Missing Value Source: NWS Daily Summary

Daily Weather History Graph

Daily Weather History Graph

Search for Another Location

Airport or City:

Trip Planner

Search our weather history database for the weather conditions in past years. The results will help you decide how hot, cold, wet, or windy it might be!

Date:

Astronomy

May. 06, 2014 Rise Set
Actual Time 5:39 AM PDT 8:06 PM PDT
Civil Twilight 5:06 AM PDT 8:38 PM PDT
Nautical Twilight 4:26 AM PDT 9:19 PM PDT
Astronomical Twilight 3:40 AM PDT 10:05 PM PDT
Moon 12:03 PM PDT (5/6) 1:25 AM PDT (5/6)
Length of Visible Light 15h 31m
Length of Day
14h 26m
Waxing Crescent, 47% of the Moon is Illuminated
May 6
Waxing Crescent
May 6
First Quarter
May 14
Full
May 21
Last Quarter
May 28
New

Hourly Weather History & Observations

Time (PDT) Temp. Windchill Dew Point Humidity Pressure Visibility Wind Dir Wind Speed Gust Speed Precip Events Conditions
12:17 AM 41.0 °F - 33.8 °F 76% 29.95 in 10.0 mi Calm Calm - N/A   Clear
12:57 AM 39.2 °F - 33.8 °F 81% 29.95 in 10.0 mi Calm Calm - N/A   Clear
1:15 AM 41.0 °F - 33.8 °F 76% 29.95 in 10.0 mi Calm Calm - N/A   Scattered Clouds
1:37 AM 39.2 °F - 33.8 °F 81% 29.95 in 10.0 mi Calm Calm - N/A   Scattered Clouds
1:55 AM 41.0 °F - 33.8 °F 76% 29.95 in 10.0 mi Calm Calm - N/A   Mostly Cloudy
2:15 AM 39.2 °F - 33.8 °F 81% 29.95 in 10.0 mi Calm Calm - N/A   Overcast
2:35 AM 39.2 °F - 33.8 °F 81% 29.94 in 10.0 mi Calm Calm - N/A   Overcast
2:56 AM 39.2 °F - 35.6 °F 87% 29.94 in 10.0 mi Calm Calm - N/A   Overcast
3:15 AM 39.2 °F 35.9 °F 35.6 °F 87% 29.95 in 10.0 mi WSW 4.6 mph - N/A   Overcast
3:35 AM 39.2 °F 35.0 °F 35.6 °F 87% 29.95 in 10.0 mi WSW 5.8 mph - N/A   Overcast
4:55 AM 39.2 °F 34.2 °F 35.6 °F 87% 29.94 in 10.0 mi West 6.9 mph - N/A   Overcast
5:15 AM 39.2 °F 34.2 °F 35.6 °F 87% 29.95 in 10.0 mi West 6.9 mph - N/A   Overcast
5:55 AM 39.2 °F 34.2 °F 35.6 °F 87% 29.95 in 7.0 mi West 6.9 mph - N/A   Overcast
6:15 AM 39.2 °F 35.9 °F 35.6 °F 87% 29.95 in 10.0 mi West 4.6 mph - N/A Rain Light Rain
6:55 AM 39.2 °F 35.9 °F 37.4 °F 93% 29.96 in 10.0 mi WSW 4.6 mph - N/A   Overcast
7:15 AM 41.0 °F 36.4 °F 35.6 °F 81% 29.96 in 10.0 mi West 6.9 mph - N/A   Overcast
7:37 AM 41.0 °F 36.4 °F 35.6 °F 81% 29.96 in 10.0 mi West 6.9 mph - N/A   Overcast
7:55 AM 42.8 °F 39.3 °F 37.4 °F 81% 29.96 in 10.0 mi West 5.8 mph - N/A   Overcast
8:15 AM 42.8 °F 37.0 °F 35.6 °F 76% 29.96 in 10.0 mi West 10.4 mph - N/A   Overcast
8:55 AM 42.8 °F 37.5 °F 37.4 °F 81% 29.96 in 10.0 mi West 9.2 mph - N/A   Overcast
9:15 AM 44.6 °F 39.7 °F 37.4 °F 76% 29.96 in 10.0 mi West 9.2 mph - N/A   Overcast
9:37 AM 44.6 °F 39.7 °F 37.4 °F 76% 29.96 in 10.0 mi WNW 9.2 mph - N/A   Overcast
9:55 AM 44.6 °F 41.4 °F 35.6 °F 71% 29.96 in 10.0 mi WNW 5.8 mph - N/A   Overcast
10:15 AM 44.6 °F 41.4 °F 37.4 °F 76% 29.96 in 10.0 mi West 5.8 mph - N/A   Light Drizzle
10:35 AM 44.6 °F 41.4 °F 35.6 °F 71% 29.96 in 10.0 mi West 5.8 mph - N/A   Overcast
10:55 AM 44.6 °F 43.1 °F 37.4 °F 76% 29.95 in 10.0 mi NW 3.5 mph - N/A Rain Light Rain
11:18 AM 46.4 °F 42.4 °F 37.4 °F 71% 29.95 in 10.0 mi WNW 8.1 mph - N/A   Overcast
11:35 AM 46.4 °F 42.9 °F 37.4 °F 71% 29.95 in 10.0 mi NW 6.9 mph - N/A   Light Drizzle
12:35 PM 50.0 °F - 35.6 °F 58% 29.92 in 10.0 mi NNW 12.7 mph 17.3 mph N/A   Mostly Cloudy
1:17 PM 51.8 °F - 37.4 °F 58% 29.91 in 10.0 mi West 15.0 mph - N/A   Scattered Clouds
1:35 PM 53.6 °F - 37.4 °F 54% 29.90 in 10.0 mi WNW 13.8 mph - N/A   Mostly Cloudy
1:55 PM 51.8 °F - 35.6 °F 54% 29.90 in 10.0 mi WNW 15.0 mph 23.0 mph N/A   Mostly Cloudy
2:17 PM 53.6 °F - 37.4 °F 54% 29.90 in 10.0 mi WNW 11.5 mph 19.6 mph N/A   Scattered Clouds
2:35 PM 53.6 °F - 35.6 °F 51% 29.90 in 10.0 mi West 10.4 mph 17.3 mph N/A   Mostly Cloudy
3:15 PM 53.6 °F - 35.6 °F 51% 29.90 in 10.0 mi NW 8.1 mph 17.3 mph N/A   Overcast
3:35 PM 53.6 °F - 33.8 °F 47% 29.89 in 10.0 mi NNW 10.4 mph 16.1 mph N/A   Overcast
4:15 PM 53.6 °F - 33.8 °F 47% 29.89 in 10.0 mi NNW 9.2 mph - N/A   Overcast
4:35 PM 53.6 °F - 32.0 °F 44% 29.88 in 10.0 mi NNW 11.5 mph 17.3 mph N/A   Overcast
4:55 PM 53.6 °F - 32.0 °F 44% 29.89 in 10.0 mi NW 13.8 mph - N/A   Overcast
5:15 PM 53.6 °F - 32.0 °F 44% 29.89 in 10.0 mi NNW 12.7 mph 18.4 mph N/A   Overcast
5:35 PM 53.6 °F - 32.0 °F 44% 29.89 in 10.0 mi NNW 13.8 mph 19.6 mph N/A   Overcast
5:55 PM 53.6 °F - 33.8 °F 47% 29.89 in 10.0 mi NW 11.5 mph 17.3 mph N/A   Mostly Cloudy
6:17 PM 51.8 °F - 33.8 °F 50% 29.89 in 10.0 mi NW 10.4 mph - N/A   Overcast
6:35 PM 51.8 °F - 33.8 °F 50% 29.89 in 10.0 mi NNW 10.4 mph - N/A   Overcast
7:16 PM 51.8 °F - 33.8 °F 50% 29.89 in 10.0 mi NNW 9.2 mph - N/A   Overcast
7:35 PM 51.8 °F - 32.0 °F 47% 29.89 in 10.0 mi NW 10.4 mph - N/A   Overcast
8:15 PM 50.0 °F - 33.8 °F 54% 29.89 in 10.0 mi North 6.9 mph - N/A   Overcast
8:35 PM 48.2 °F - 33.8 °F 58% 29.89 in 10.0 mi North 5.8 mph - N/A   Overcast
9:15 PM 48.2 °F - 33.8 °F 58% 29.90 in 10.0 mi Calm Calm - N/A   Mostly Cloudy
9:35 PM 46.4 °F - 33.8 °F 62% 29.91 in 10.0 mi Calm Calm - N/A   Scattered Clouds
10:15 PM 46.4 °F 42.9 °F 32.0 °F 57% 29.92 in 10.0 mi West 6.9 mph - N/A   Mostly Cloudy
10:35 PM 46.4 °F 40.4 °F 32.0 °F 57% 29.92 in 10.0 mi NNW 13.8 mph 20.7 mph N/A   Overcast
11:15 PM 44.6 °F 41.4 °F 32.0 °F 61% 29.93 in 10.0 mi WNW 5.8 mph - N/A   Scattered Clouds
11:35 PM 44.6 °F 39.2 °F 32.0 °F 61% 29.94 in 10.0 mi WNW 10.4 mph - N/A   Overcast
11:57 PM 44.6 °F 43.1 °F 32.0 °F 61% 29.94 in 10.0 mi NW 3.5 mph - N/A   Mostly Cloudy